Flag for Namibia Weather past 2 weeks in Swakopmund, Namibia

Now
72 °F

Sunny.


Feels Like: 77 °F
Forecast: 56 / 72 °F
Wind: 7 mph from West

Location: Walvis Bay

Current Time: Aug 4, 2015 at 1:18:07 PM

Latest Report: Aug 4, 2015 at 12:00 PM


Visibility: 10 mi

Pressure: 30.15 "Hg

Humidity: 38%

Dew point: 45 °F

Location of SwakopmundLocation

Historic Weather in Swakopmund — Graph

°F

Swakopmund temperature yesterday

Maximum temperature yesterday: 64 °F (at 1:00 PM)
Minimum temperature yesterday: 50 °F (at 11:00 PM)
Average temperature yesterday: 54 °F

Past Weeks' High & Low Weather Summary

 TemperatureHumidityPressure
High93 °F (Aug 1, 12:00 PM)100% (Jul 27, 7:00 AM)30.27 "Hg (Jul 27, 7:00 AM)
Low37 °F (Jul 30, 5:00 AM)10% (Jul 26, 1:00 PM)29.98 "Hg (Jul 26, 4:00 PM)
Average57 °F70%30.13 "Hg
* Reported Jul 20 1:00 PM — Aug 4 12:00 Noon, Swakopmund, Weather by CustomWeather, © 2015

Note: Actual official high and low records may vary slightly from our data, if they occured in-between our weather recording intervals... More about our weather records

Advertising

Swakopmund weather history for previous 24 hours

 ConditionsComfort  
Time TempWeatherWind HumidityBarometerVisibility
12:00 PM
Tue, Aug 4
72 °FSunny.5 mph38%30.15 "Hg10 mi
11:00 AM63 °FSunny.5 mph64%30.15 "Hg10 mi
10:00 AM55 °FSunny.No wind100%30.18 "Hg10 mi
9:00 AM50 °FScattered clouds.3 mph100%30.18 "HgN/A
8:00 AM52 °FOvercast.No wind94%30.15 "HgN/A
7:00 AM45 °FLow clouds.5 mph100%30.15 "HgN/A
6:00 AM45 °FSunny.6 mph100%30.12 "Hg10 mi
5:00 AM48 °FFog.3 mph94%30.12 "Hg0 mi
4:00 AM48 °FCool.2 mph94%30.12 "HgN/A
3:00 AM50 °FCool.6 mph94%30.15 "HgN/A
2:00 AM52 °FCool.7 mph94%30.15 "HgN/A
1:00 AM52 °FCool.6 mph94%30.15 "HgN/A
12:00 AM50 °FCool.7 mph100%30.15 "HgN/A
11:00 PM
Mon, Aug 3
50 °FCool.6 mph88%30.15 "HgN/A
10:00 PM52 °FCool.8 mph88%30.15 "HgN/A
9:00 PM52 °FCool.3 mph88%30.15 "HgN/A
8:00 PM54 °FCool.6 mph88%30.12 "HgN/A
7:00 PM55 °FClear.6 mph88%30.09 "Hg10 mi
1:00 PM64 °FSunny.13 mph73%30.12 "Hg10 mi
Weather by CustomWeather, © 2015

See weather overviewHow to use our weather pages